Location: Casteau
(50.5142°N, 4.0161°E)
Time: 05:37:57
(UTC+00:00)

YAOGAN 1 - Pass Details

Date: 18 September 2020
Orbit: 618 x 620 km, 97.9° (Epoch: 27 October)

Event Time Altitude Azimuth Distance (km) Brightness Sun altitude
Rises 18:22:35 0° 170° (S) 2,887 5.8 -5.9°
Reaches altitude 10° 18:24:46 10° 172° (S) 1,985 5.0 -6.3°
Maximum altitude 18:29:05 72° 257° (WSW) 656 2.9 -7.0°
Drops below altitude 10° 18:33:25 10° 342° (NNW) 2,001 5.6 -7.6°
Sets 18:35:38 0° 345° (NNW) 2,912 6.4 -8.0°
